B837A ZUUU-ZUUU

Flight info

Callsign B837A
Flight time 0h 48m
Altitude 10000
Route LOCAL
Aircraft SR2T/L-SDE3/L

Departure

Time 2026-04-29 08:59
Airport Chengdu Shuangliu International Airport (ZUUU)

Arrival

Time 2026-04-29 09:48
Airport Chengdu Shuangliu International Airport (ZUUU)
Time Latitude Longitude Altitude Speed Heading
2026-04-29 08:32 30.56367 103.94539 1641 ft 0 kts 202°
2026-04-29 08:46 30.56367 103.94538 1641 ft 1 kts 202°
2026-04-29 08:46 30.56347 103.94529 1641 ft 7 kts 202°
2026-04-29 08:46 30.56341 103.94526 1641 ft 0 kts 202°
2026-04-29 08:53 30.56337 103.94521 1641 ft 4 kts 251°
2026-04-29 08:53 30.56382 103.94535 1641 ft 13 kts 43°
2026-04-29 08:54 30.56478 103.94532 1642 ft 19 kts 296°
2026-04-29 08:54 30.56534 103.94366 1642 ft 23 kts 288°
2026-04-29 08:54 30.56431 103.94254 1642 ft 24 kts 202°
2026-04-29 08:54 30.56307 103.94167 1642 ft 18 kts 262°
2026-04-29 08:55 30.56308 103.94142 1642 ft 0 kts 291°
2026-04-29 08:56 30.56316 103.94119 1642 ft 9 kts 290°
2026-04-29 08:56 30.56368 103.94018 1642 ft 19 kts 356°
2026-04-29 08:56 30.56395 103.94026 1642 ft 0 kts 21°
2026-04-29 08:58 30.56396 103.94027 1642 ft 2 kts 20°
2026-04-29 08:58 30.56639 103.94141 1644 ft 70 kts 22°
2026-04-29 08:59 30.57192 103.94408 1730 ft 95 kts 20°
2026-04-29 08:59 30.57839 103.94695 1852 ft 106 kts 19°
2026-04-29 08:59 30.58514 103.95009 2116 ft 103 kts 20°
2026-04-29 08:59 30.59175 103.95325 2355 ft 103 kts 21°
2026-04-29 09:00 30.59846 103.95629 2599 ft 105 kts 24°
2026-04-29 09:00 30.60561 103.95931 2746 ft 114 kts 20°
2026-04-29 09:00 30.61312 103.96232 2947 ft 115 kts 20°
2026-04-29 09:00 30.62095 103.96546 3205 ft 123 kts 20°
2026-04-29 09:01 30.62915 103.96898 3471 ft 129 kts 24°
2026-04-29 09:01 30.63754 103.97288 3733 ft 131 kts 23°
2026-04-29 09:01 30.64617 103.97684 3992 ft 136 kts 24°
2026-04-29 09:01 30.65536 103.98125 4081 ft 156 kts 24°
2026-04-29 09:02 30.66562 103.98626 4297 ft 158 kts 25°
2026-04-29 09:02 30.67560 103.99104 4606 ft 152 kts 24°
2026-04-29 09:02 30.68550 103.99483 4907 ft 150 kts 11°
2026-04-29 09:02 30.69535 103.99178 5171 ft 153 kts 321°
2026-04-29 09:03 30.69996 103.98043 5195 ft 166 kts 270°
2026-04-29 09:03 30.69738 103.96717 5198 ft 172 kts 251°
2026-04-29 09:03 30.69377 103.95365 5198 ft 178 kts 252°
2026-04-29 09:03 30.69012 103.93997 5197 ft 181 kts 251°
2026-04-29 09:04 30.68637 103.92597 5195 ft 182 kts 251°
2026-04-29 09:04 30.68274 103.91227 5193 ft 173 kts 252°
2026-04-29 09:04 30.67944 103.89913 5183 ft 167 kts 257°
2026-04-29 09:04 30.67805 103.88580 5181 ft 164 kts 264°
2026-04-29 09:05 30.67701 103.87270 5176 ft 161 kts 263°
2026-04-29 09:05 30.67592 103.85985 5174 ft 158 kts 261°
2026-04-29 09:05 30.67339 103.84753 5173 ft 156 kts 254°
2026-04-29 09:05 30.67113 103.83524 5176 ft 155 kts 257°
2026-04-29 09:06 30.66900 103.82300 5177 ft 154 kts 257°
2026-04-29 09:06 30.66687 103.81081 5180 ft 154 kts 258°
2026-04-29 09:06 30.66489 103.79860 5178 ft 154 kts 258°
2026-04-29 09:06 30.66294 103.78640 5187 ft 154 kts 258°
2026-04-29 09:07 30.66098 103.77421 5178 ft 153 kts 258°
2026-04-29 09:07 30.65903 103.76209 5184 ft 152 kts 258°
2026-04-29 09:07 30.65710 103.74998 5183 ft 153 kts 259°
2026-04-29 09:07 30.65516 103.73785 5180 ft 152 kts 258°
2026-04-29 09:08 30.65326 103.72577 5185 ft 152 kts 258°
2026-04-29 09:08 30.65137 103.71385 5177 ft 152 kts 258°
2026-04-29 09:08 30.64943 103.70175 5178 ft 152 kts 258°
2026-04-29 09:08 30.64749 103.68968 5178 ft 152 kts 258°
2026-04-29 09:09 30.64577 103.67756 5180 ft 153 kts 266°
2026-04-29 09:09 30.64654 103.66524 5181 ft 154 kts 276°
2026-04-29 09:09 30.64770 103.65294 5183 ft 153 kts 275°
2026-04-29 09:09 30.64885 103.64064 5183 ft 153 kts 275°
2026-04-29 09:10 30.65001 103.62832 5186 ft 153 kts 275°
2026-04-29 09:10 30.65118 103.61600 5189 ft 153 kts 276°
2026-04-29 09:10 30.65235 103.60372 5183 ft 153 kts 275°
2026-04-29 09:10 30.65376 103.59145 5175 ft 154 kts 286°
2026-04-29 09:11 30.66043 103.58246 5183 ft 152 kts 336°
2026-04-29 09:11 30.67061 103.58264 5180 ft 150 kts 27°
2026-04-29 09:11 30.67668 103.59180 5192 ft 147 kts 79°
2026-04-29 09:11 30.67457 103.60303 5189 ft 145 kts 118°
2026-04-29 09:12 30.66987 103.61337 5192 ft 145 kts 117°
2026-04-29 09:12 30.66526 103.62383 5200 ft 145 kts 117°
2026-04-29 09:12 30.66061 103.63424 5196 ft 145 kts 117°
2026-04-29 09:12 30.65597 103.64458 5191 ft 145 kts 117°
2026-04-29 09:13 30.65124 103.65498 5195 ft 146 kts 117°
2026-04-29 09:13 30.64673 103.66555 5192 ft 146 kts 113°
2026-04-29 09:13 30.64600 103.67719 5198 ft 147 kts 85°
2026-04-29 09:13 30.64624 103.68905 5190 ft 147 kts 89°
2026-04-29 09:14 30.65083 103.69915 5184 ft 148 kts 34°
2026-04-29 09:14 30.66084 103.70032 5193 ft 152 kts 339°
2026-04-29 09:14 30.66777 103.69153 5188 ft 153 kts 285°
2026-04-29 09:14 30.66909 103.67940 5193 ft 151 kts 275°
2026-04-29 09:15 30.67021 103.66741 5195 ft 151 kts 275°
2026-04-29 09:15 30.67136 103.65530 5193 ft 151 kts 275°
2026-04-29 09:15 30.67252 103.64302 5195 ft 151 kts 275°
2026-04-29 09:15 30.67365 103.63110 5193 ft 150 kts 276°
2026-04-29 09:16 30.67479 103.61901 5194 ft 150 kts 275°
2026-04-29 09:16 30.67593 103.60692 5199 ft 151 kts 276°
2026-04-29 09:16 30.67710 103.59486 5194 ft 150 kts 275°
2026-04-29 09:16 30.67839 103.58283 5195 ft 150 kts 278°
2026-04-29 09:17 30.68006 103.57084 5197 ft 150 kts 278°
2026-04-29 09:17 30.68156 103.55888 5196 ft 150 kts 277°
2026-04-29 09:17 30.68293 103.54687 5196 ft 150 kts 277°
2026-04-29 09:17 30.68425 103.53484 5197 ft 150 kts 276°
2026-04-29 09:18 30.68552 103.52286 5199 ft 149 kts 276°
2026-04-29 09:18 30.68673 103.51093 5201 ft 149 kts 276°
2026-04-29 09:18 30.68525 103.49933 5190 ft 147 kts 236°
2026-04-29 09:18 30.68017 103.49435 5190 ft 146 kts 201°
2026-04-29 09:19 30.66791 103.49766 5192 ft 144 kts 130°
2026-04-29 09:19 30.66488 103.50835 5201 ft 143 kts 96°
2026-04-29 09:19 30.66419 103.51615 5205 ft 143 kts 97°
2026-04-29 09:19 30.66269 103.53141 5200 ft 144 kts 97°
2026-04-29 09:20 30.66156 103.54299 5197 ft 145 kts 97°
2026-04-29 09:20 30.66080 103.55087 5204 ft 145 kts 97°
2026-04-29 09:20 30.65971 103.56213 5186 ft 135 kts 97°
2026-04-29 09:20 30.65871 103.57264 5172 ft 127 kts 96°
2026-04-29 09:21 30.65780 103.58249 5177 ft 119 kts 97°
2026-04-29 09:21 30.65665 103.59482 5176 ft 116 kts 96°
2026-04-29 09:21 30.65609 103.60159 5188 ft 128 kts 96°
2026-04-29 09:21 30.65509 103.61144 5213 ft 119 kts 97°
2026-04-29 09:22 30.65415 103.62069 5225 ft 113 kts 97°
2026-04-29 09:22 30.65343 103.62964 5232 ft 109 kts 86°
2026-04-29 09:22 30.65835 103.63491 5130 ft 120 kts 335°
2026-04-29 09:22 30.65660 103.62933 4998 ft 120 kts 146°
2026-04-29 09:23 30.65962 103.63396 4902 ft 128 kts 323°
2026-04-29 09:23 30.65751 103.62625 4898 ft 123 kts 185°
2026-04-29 09:23 30.65338 103.63276 4898 ft 125 kts 66°
2026-04-29 09:23 30.65923 103.63499 4858 ft 131 kts 330°
2026-04-29 09:24 30.66129 103.62857 4887 ft 128 kts 250°
2026-04-29 09:24 30.65419 103.62633 4877 ft 124 kts 136°
2026-04-29 09:24 30.65159 103.63556 4989 ft 116 kts 99°
2026-04-29 09:24 30.65071 103.64452 5099 ft 108 kts 96°
2026-04-29 09:25 30.64994 103.65301 5174 ft 105 kts 96°
2026-04-29 09:25 30.64916 103.66170 5179 ft 110 kts 96°
2026-04-29 09:25 30.64834 103.67075 5187 ft 115 kts 96°
2026-04-29 09:25 30.64753 103.68014 5192 ft 118 kts 96°
2026-04-29 09:26 30.64421 103.68842 5183 ft 119 kts 146°
2026-04-29 09:26 30.63651 103.69219 5193 ft 119 kts 156°
2026-04-29 09:26 30.62891 103.69585 5192 ft 120 kts 156°
2026-04-29 09:26 30.62113 103.69956 5189 ft 122 kts 156°
2026-04-29 09:27 30.61328 103.70334 5190 ft 122 kts 156°
2026-04-29 09:27 30.60546 103.70713 5190 ft 123 kts 156°
2026-04-29 09:27 30.59756 103.71093 5190 ft 123 kts 156°
2026-04-29 09:27 30.58957 103.71476 5191 ft 124 kts 156°
2026-04-29 09:28 30.58152 103.71857 5195 ft 126 kts 156°
2026-04-29 09:28 30.57333 103.72245 5190 ft 126 kts 156°
2026-04-29 09:28 30.56518 103.72629 5191 ft 127 kts 156°
2026-04-29 09:28 30.55689 103.73020 5188 ft 130 kts 156°
2026-04-29 09:29 30.54851 103.73415 5184 ft 130 kts 156°
2026-04-29 09:29 30.53178 103.74204 5188 ft 131 kts 156°
2026-04-29 09:29 30.52334 103.74605 5190 ft 130 kts 156°
2026-04-29 09:30 30.51500 103.75000 5188 ft 129 kts 156°
2026-04-29 09:30 30.50678 103.75391 5187 ft 129 kts 157°
2026-04-29 09:30 30.49842 103.75788 5187 ft 130 kts 156°
2026-04-29 09:30 30.49008 103.76181 5186 ft 130 kts 156°
2026-04-29 09:31 30.48173 103.76573 5190 ft 129 kts 156°
2026-04-29 09:31 30.47340 103.76968 5185 ft 129 kts 156°
2026-04-29 09:31 30.46505 103.77360 5193 ft 130 kts 157°
2026-04-29 09:31 30.45662 103.77751 5191 ft 131 kts 156°
2026-04-29 09:32 30.44819 103.78144 5188 ft 130 kts 156°
2026-04-29 09:32 30.43974 103.78533 5191 ft 131 kts 156°
2026-04-29 09:32 30.43121 103.78925 5192 ft 133 kts 156°
2026-04-29 09:32 30.42263 103.79323 5185 ft 132 kts 156°
2026-04-29 09:33 30.41380 103.79571 5172 ft 134 kts 186°
2026-04-29 09:33 30.40654 103.78943 5168 ft 137 kts 245°
2026-04-29 09:33 30.40458 103.77867 5181 ft 138 kts 259°
2026-04-29 09:33 30.40278 103.76767 5186 ft 139 kts 258°
2026-04-29 09:34 30.40020 103.75704 5182 ft 137 kts 243°
2026-04-29 09:34 30.39637 103.74711 5179 ft 137 kts 244°
2026-04-29 09:34 30.39108 103.73809 5179 ft 135 kts 224°
2026-04-29 09:34 30.38347 103.73204 5182 ft 133 kts 200°
2026-04-29 09:35 30.37497 103.72760 5171 ft 135 kts 202°
2026-04-29 09:35 30.36631 103.72332 5179 ft 135 kts 200°
2026-04-29 09:35 30.35766 103.71926 5176 ft 134 kts 199°
2026-04-29 09:35 30.34905 103.71528 5174 ft 132 kts 199°
2026-04-29 09:36 30.34048 103.71135 5174 ft 133 kts 199°
2026-04-29 09:36 30.33184 103.70735 5176 ft 133 kts 199°
2026-04-29 09:36 30.32317 103.70338 5179 ft 135 kts 199°
2026-04-29 09:36 30.31421 103.70271 5163 ft 130 kts 156°
2026-04-29 09:37 30.30782 103.70969 5175 ft 128 kts 120°
2026-04-29 09:37 30.30402 103.71899 5178 ft 127 kts 113°
2026-04-29 09:37 30.30032 103.72831 5173 ft 128 kts 114°
2026-04-29 09:37 30.29674 103.73766 5174 ft 126 kts 112°
2026-04-29 09:38 30.29338 103.74703 5173 ft 126 kts 111°
2026-04-29 09:38 30.29007 103.75627 5171 ft 126 kts 111°
2026-04-29 09:38 30.28673 103.76567 5175 ft 127 kts 111°
2026-04-29 09:38 30.28337 103.77515 5169 ft 127 kts 111°
2026-04-29 09:39 30.28312 103.78506 5167 ft 127 kts 69°
2026-04-29 09:39 30.28678 103.79438 5174 ft 127 kts 67°
2026-04-29 09:39 30.29304 103.80145 5180 ft 131 kts 22°
2026-04-29 09:39 30.30143 103.80570 5185 ft 132 kts 34°
2026-04-29 09:40 30.30920 103.81139 5172 ft 132 kts 33°
2026-04-29 09:40 30.31699 103.81698 5177 ft 132 kts 34°
2026-04-29 09:40 30.32508 103.82277 5023 ft 139 kts 34°
2026-04-29 09:40 30.33338 103.82870 4864 ft 141 kts 34°
2026-04-29 09:41 30.34186 103.83478 4703 ft 144 kts 33°
2026-04-29 09:41 30.35081 103.83936 4690 ft 138 kts 20°
2026-04-29 09:41 30.35961 103.84283 4681 ft 133 kts 22°
2026-04-29 09:41 30.36813 103.84626 4677 ft 127 kts 21°
2026-04-29 09:42 30.37635 103.84951 4678 ft 123 kts 21°
2026-04-29 09:42 30.38434 103.85268 4679 ft 120 kts 21°
2026-04-29 09:42 30.39221 103.85584 4677 ft 119 kts 21°
2026-04-29 09:42 30.39878 103.85855 4677 ft 119 kts 22°
2026-04-29 09:43 30.40654 103.86164 4676 ft 116 kts 21°
2026-04-29 09:43 30.41418 103.86463 4680 ft 118 kts 21°
2026-04-29 09:43 30.42198 103.86779 4683 ft 119 kts 22°
2026-04-29 09:43 30.43020 103.87118 4550 ft 130 kts 22°
2026-04-29 09:44 30.43894 103.87475 4422 ft 135 kts 22°
2026-04-29 09:44 30.44788 103.87838 4290 ft 140 kts 22°
2026-04-29 09:44 30.45671 103.88325 4136 ft 143 kts 34°
2026-04-29 09:44 30.46532 103.88942 3955 ft 148 kts 34°
2026-04-29 09:45 30.47418 103.89568 3777 ft 150 kts 33°
2026-04-29 09:45 30.48336 103.90168 3591 ft 155 kts 25°
2026-04-29 09:45 30.49388 103.90506 3406 ft 158 kts 16°
2026-04-29 09:45 30.50399 103.90883 3166 ft 149 kts 30°
2026-04-29 09:46 30.51308 103.91455 2873 ft 145 kts 32°
2026-04-29 09:46 30.52172 103.91955 2714 ft 134 kts 26°
2026-04-29 09:46 30.52990 103.92416 2449 ft 130 kts 25°
2026-04-29 09:46 30.53789 103.92787 2344 ft 118 kts 27°
2026-04-29 09:47 30.54497 103.93143 2169 ft 105 kts 22°
2026-04-29 09:47 30.55121 103.93432 2002 ft 92 kts 26°
2026-04-29 09:47 30.55708 103.93698 1833 ft 89 kts 24°
2026-04-29 09:47 30.56266 103.93961 1704 ft 85 kts 21°
2026-04-29 09:48 30.56772 103.94200 1644 ft 69 kts 20°
2026-04-29 09:48 30.57183 103.94390 1640 ft 60 kts 21°
2026-04-29 09:48 30.57562 103.94567 1640 ft 45 kts 25°
2026-04-29 09:48 30.57555 103.94727 1642 ft 20 kts 116°
2026-04-29 09:49 30.57465 103.94823 1642 ft 20 kts 199°
2026-04-29 09:49 30.57326 103.94767 1642 ft 22 kts 207°
2026-04-29 09:49 30.57181 103.94692 1642 ft 23 kts 201°
2026-04-29 09:49 30.57027 103.94621 1642 ft 24 kts 191°
2026-04-29 09:50 30.56903 103.94680 1642 ft 21 kts 206°
2026-04-29 09:50 30.56759 103.94617 1642 ft 23 kts 212°
2026-04-29 09:50 30.56612 103.94547 1642 ft 24 kts 202°
2026-04-29 09:50 30.56562 103.94639 1641 ft 18 kts 37°
2026-04-29 09:51 30.56621 103.94672 1641 ft 0 kts 25°